Zurück zum Katalog

STARLINK-31734

AktivKommunikationVLEO
NORAD 59534·PAYLOAD·🇺🇸 United States

Gestartet Apr 18, 2024 von Cape Canaveral Space Force Station

Loading…

Nächste Überflüge (nächste 24 Stunden)

TLE

AktuellSource: CelesTrak SupGP

Epoche: Sep 14, 2026, 22:38 UTC

1 59534C 24074A   26257.94354167 -.00019065  00000+0 -69067-3 0  2574
2 59534  43.0025 343.8259 0001505 276.5236 102.4315 15.27580902    14

Verfolge STARLINK-31734 in Echtzeit mit AllMySat

Download on the App Store